TimeHST,TemperatureF,Dew PointF,Humidity,Sea Level PressureIn,VisibilityMPH,Wind Direction,Wind SpeedMPH,Gust SpeedMPH,PrecipitationIn,Events,Conditions,WindDirDegrees,DateUTC
12:09 AM,-9999,-9999,N/A,30.06,6.2,Calm,Calm,-,N/A,,Mostly Cloudy,0,2012-11-29 10:09:00
12:16 AM,-9999,-9999,N/A,30.06,6.2,Calm,Calm,-,N/A,Rain,Light Rain,0,2012-11-29 10:16:00
12:57 AM,-9999,-9999,N/A,30.04,10.0,South,3.5,-,N/A,,Mostly Cloudy,190,2012-11-29 10:57:00
1:57 AM,73.4,64.4,73,30.03,10.0,South,3.5,-,N/A,,Mostly Cloudy,190,2012-11-29 11:57:00
2:57 AM,73.4,64.9,75,30.02,10.0,Calm,Calm,-,N/A,,Partly Cloudy,0,2012-11-29 12:57:00
3:57 AM,73.4,66.0,78,30.00,10.0,Calm,Calm,-,N/A,,Partly Cloudy,0,2012-11-29 13:57:00
4:57 AM,73.4,66.0,78,29.99,10.0,South,3.5,-,N/A,,Partly Cloudy,170,2012-11-29 14:57:00
5:57 AM,71.6,66.0,82,30.00,10.0,Calm,Calm,-,N/A,,Partly Cloudy,0,2012-11-29 15:57:00
6:57 AM,71.6,64.9,79,30.02,10.0,Calm,Calm,-,N/A,,Partly Cloudy,0,2012-11-29 16:57:00
7:57 AM,73.4,64.0,72,30.04,10.0,Calm,Calm,-,N/A,,Clear,0,2012-11-29 17:57:00
8:57 AM,73.4,66.9,80,30.05,10.0,Calm,Calm,-,N/A,,Mostly Cloudy,0,2012-11-29 18:57:00
9:57 AM,75.2,68.0,78,30.06,10.0,SE,3.5,-,N/A,,Clear,140,2012-11-29 19:57:00
10:57 AM,79.7,64.9,61,30.05,10.0,Variable,3.5,-,N/A,,Clear,0,2012-11-29 20:57:00
11:57 AM,80.6,64.0,57,30.03,10.0,Variable,4.6,-,N/A,,Overcast,0,2012-11-29 21:57:00
12:57 PM,80.6,64.0,57,29.99,10.0,SE,5.8,-,N/A,,Clear,130,2012-11-29 22:57:00
1:57 PM,80.6,64.9,59,29.97,10.0,SE,8.1,-,N/A,,Partly Cloudy,140,2012-11-29 23:57:00
2:57 PM,78.8,64.0,60,29.97,10.0,SE,6.9,-,N/A,,Mostly Cloudy,130,2012-11-30 00:57:00
3:57 PM,78.8,64.0,60,29.97,10.0,ESE,4.6,-,N/A,,Scattered Clouds,110,2012-11-30 01:57:00
4:57 PM,78.8,66.0,65,29.97,10.0,ESE,4.6,-,N/A,,Scattered Clouds,110,2012-11-30 02:57:00
5:57 PM,77.0,66.0,69,29.99,10.0,South,3.5,-,N/A,,Scattered Clouds,190,2012-11-30 03:57:00
6:57 PM,77.0,66.0,69,30.02,10.0,WNW,5.8,-,N/A,,Overcast,290,2012-11-30 04:57:00
7:57 PM,74.5,66.9,77,30.04,10.0,Calm,Calm,-,N/A,,Mostly Cloudy,0,2012-11-30 05:57:00
8:57 PM,73.4,64.9,75,30.04,10.0,Calm,Calm,-,N/A,,Scattered Clouds,0,2012-11-30 06:57:00
9:57 PM,73.4,64.0,72,30.05,10.0,Calm,Calm,-,N/A,,Mostly Cloudy,0,2012-11-30 07:57:00
10:57 PM,73.4,66.0,78,30.05,10.0,Calm,Calm,-,N/A,,Mostly Cloudy,0,2012-11-30 08:57:00
11:57 PM,73.4,66.9,80,30.04,10.0,Calm,Calm,-,N/A,,Clear,0,2012-11-30 09:57:00